Regional Weather Roundup
Issued by NWS

Home | Current Version | Previous Version | Text Only | Print | Product List | Glossary On
Versions: 1 2 3 4 5 6 7 8 9 10 11 12 13 14 15 16 17 18 19 20 21 22 23 24 25 26 27 28 29 30 31 32 33 34 35 36 37 38 39 40 41 42 43 44 45 46 47 48 49 50
669
ASUS43 KFSD 301202
RWRSD

WEATHER ROUNDUP FOR SOUTH DAKOTA
NATIONAL WEATHER SERVICE SIOUX FALLS SD
700 AM CDT MON MAY 30 2016

NOTE: "FAIR" INDICATES FEW OR NO CLOUDS BELOW 12,000 FEET WITH NO
SIGNIFICANT WEATHER AND/OR OBSTRUCTIONS TO VISIBILITY.


SDZ001>005-009-010-012>017-301300-
NORTHWEST AND NORTH CENTRAL SOUTH DAKOTA

CITY           SKY/WX    TMP DP  RH WIND       PRES   REMARKS
BUFFALO          N/A     55  51  86 E8        29.82F
FAITH            N/A     57  52  83 SE17      29.90F
MOBRIDGE       CLEAR     58  54  86 SE7       29.90S
$$

SDZ012>016-024>037-041>051-057-063-072>074-301300-
SOUTHWEST AND SOUTH CENTRAL SOUTH DAKOTA

CITY           SKY/WX    TMP DP  RH WIND       PRES   REMARKS
RAPID CTY ARPT CLOUDY    48  47  96 E3        29.90S
PIERRE         CLOUDY    60  55  83 SE12      29.92F
CUSTER         CLEAR     48  41  76 NW5       30.01S
ELLSWORTH AFB  CLOUDY    52  51  96 S6        29.89F
PHILIP         PTCLDY    54  53  97 SE3       29.90F
PINE RIDGE     CLOUDY    57  49  74 SW6       29.93R
WINNER         PTSUNNY   61  56  83 SE14      29.97R
$$

SDZ004>011-016>023-039-040-301300-
NORTHEAST SOUTH DAKOTA

CITY           SKY/WX    TMP DP  RH WIND       PRES   REMARKS
ABERDEEN       SUNNY     57  52  83 SE8       29.94F
WATERTOWN      CLOUDY    61  53  75 S7        29.98F
BROOKINGS      CLOUDY    61  53  75 E6        29.96F
SISSETON         N/A     65  51  60 SW15      29.95F
$$

SDZ017-020-022-023-036>040-048>070-301300-
SOUTHEAST SOUTH DAKOTA

CITY           SKY/WX    TMP DP  RH WIND       PRES   REMARKS
SIOUX FALLS    CLOUDY    62  53  72 SE6       29.99F
HURON          CLOUDY    61  56  83 S9G18     29.92F
MITCHELL       PTCLDY    61  58  90 E8        29.97R
YANKTON        PTCLDY    63  55  77 NE7       29.99R
$$

ABBREVIATIONS USED IN REMARKS
   TC - TEMPERATURE IN CELSIUS
  WCI - WIND CHILL INDEX
   HX - HEAT INDEX
  VSB - VISIBILITY





USA.gov is the U.S. government's official web portal to all federal, state and local government web resources and services.